This is the latest recevied weather packets stored in our database for station/object G7GQA-4. If no packets are shown the sender has not sent any weather packets the latest 10 day(s).
| Time | Temp. | Humidity | Pressure | Rain* | Wind** | Luminosity | Snow |
|---|---|---|---|---|---|---|---|
| 1777554919 | 21.11° C | 30% | - | 0 mm | - | 718 W/m² | - |
| 1777554319 | 21.67° C | 30% | - | 0 mm | - | 726 W/m² | - |
| 1777553719 | 21.67° C | 31% | - | 0 mm | - | 732 W/m² | - |
| 1777553119 | 21.11° C | 30% | - | 0 mm | - | 737 W/m² | - |
| 1777552519 | 20.56° C | 30% | - | 0 mm | - | 742 W/m² | - |
| 1777551919 | 21.11° C | 30% | - | 0 mm | - | 742 W/m² | - |
| 1777551320 | 20.56° C | 31% | - | 0 mm | - | 745 W/m² | - |
| 1777550719 | 20.56° C | 31% | - | 0 mm | - | 747 W/m² | - |
| 1777550119 | 20.56° C | 32% | - | 0 mm | - | 750 W/m² | - |
| 1777549519 | 20.56° C | 32% | - | 0 mm | - | 750 W/m² | - |
| 1777548919 | 20° C | 34% | - | 0 mm | - | 746 W/m² | - |
| 1777548319 | 20° C | 34% | - | 0 mm | - | 741 W/m² | - |
| 1777547719 | 19.44° C | 35% | - | 0 mm | - | 739 W/m² | - |
| 1777547119 | 19.44° C | 37% | - | 0 mm | - | 736 W/m² | - |
| 1777546519 | 19.44° C | 38% | - | 0 mm | - | 731 W/m² | - |
| 1777545919 | 18.89° C | 40% | - | 0 mm | - | 718 W/m² | - |
| 1777545319 | 18.89° C | 40% | - | 0 mm | - | 707 W/m² | - |
| 1777544718 | 18.33° C | 41% | - | 0 mm | - | 694 W/m² | - |
| 1777544119 | 18.33° C | 42% | - | 0 mm | - | 677 W/m² | - |
| 1777543519 | 18.33° C | 43% | - | 0 mm | - | 659 W/m² | - |
| 1777542919 | 17.78° C | 45% | - | 0 mm | - | 297 W/m² | - |
| 1777542319 | 17.22° C | 47% | - | 0 mm | - | 616 W/m² | - |
| 1777541731 | 17.22° C | 48% | - | 0 mm | - | 597 W/m² | - |
| 1777541131 | 16.67° C | 48% | - | 0 mm | - | 579 W/m² | - |
| 1777540531 | 16.67° C | 49% | - | 0 mm | - | 561 W/m² | - |
* Rain latest hour (hover to see other rain measurements)
** Current wind speed in m/s (hover to see current wind gust speed)